QPF
0.16 0.20 0.19 0.19 0.20 0.19 0.16 0.14 0.11 0.11 0.10 0.11 0.13 0.13 0.12 0.11 0.10 0.08 0.07 0.10 0.08 0.07 0.06 0.05 0.04 0.04 0.04 0.04 0.04 0.04 0.05 0.06 0.06 0.04 0.04 0.04 0.04 0.03 0.02 0.02 0.02 0.02 0.02
0.24 0.25 0.27 0.34 0.30 0.27 0.22 0.22 0.18 0.16 0.16 0.14 0.14 0.17 0.16 0.14 0.13 0.10 0.11 0.09 0.08 0.07 0.07 0.07 0.07 0.07 0.06 0.05 0.05 0.05 0.04 0.05 0.06 0.05 0.05 0.05 0.05 0.04 0.04 0.03 0.03 0.03 0.03
0.31 0.30 0.30 0.40 0.38 0.37 0.39 0.37 0.30 0.25 0.27 0.25 0.20 0.21 0.21 0.20 0.18 0.14 0.14 0.11 0.08 0.09 0.10 0.09 0.09 0.10 0.08 0.07 0.06 0.06 0.06 0.06 0.06 0.05 0.05 0.06 0.06 0.04 0.04 0.04 0.05 0.04 0.04
0.41 0.38 0.31 0.33 0.36 0.37 0.37 0.43 0.39 0.28 0.27 0.33 0.29 0.27 0.26 0.21 0.21 0.16 0.14 0.16 0.14 0.11 0.12 0.09 0.08 0.09 0.09 0.08 0.08 0.07 0.05 0.04 0.03 0.03 0.04 0.05 0.05 0.03 0.03 0.03 0.04 0.05 0.04
0.39 0.40 0.38 0.35 0.31 0.27 0.30 0.31 0.31 0.27 0.24 0.29 0.30 0.25 0.21 0.18 0.17 0.17 0.16 0.19 0.21 0.20 0.17 0.09 0.08 0.09 0.09 0.07 0.05 0.04 0.03 0.03 0.02 0.02 0.03 0.03 0.02 0.02 0.02 0.02 0.03 0.04 0.04
0.35 0.35 0.36 0.34 0.29 0.23 0.23 0.23 0.23 0.24 0.23 0.19 0.18 0.21 0.19 0.16 0.15 0.14 0.15 0.18 0.14 0.13 0.11 0.09 0.07 0.06 0.05 0.04 0.04 0.04 0.04 0.03 0.02 0.02 0.02 0.02 0.01 0.01 0.01 0.01 0.02 0.02 0.03
0.29 0.35 0.39 0.38 0.34 0.26 0.23 0.20 0.19 0.19 0.20 0.18 0.15 0.15 0.13 0.11 0.13 0.13 0.14 0.12 0.11 0.10 0.08 0.05 0.04 0.03 0.02 0.03 0.02 0.02 0.02 0.02 0.02 0.02 0.02 0.01 0.01 0.01 0.01 0.01 0.01 0.02 0.02
0.26 0.28 0.34 0.35 0.29 0.24 0.24 0.24 0.21 0.18 0.17 0.16 0.13 0.13 0.11 0.08 0.06 0.08 0.08 0.07 0.07 0.05 0.04 0.04 0.03 0.02 0.02 0.01 0.01 0.01 0.01 0.01 0.01 0.02 0.02 0.01 0.01 0.01 0.01 0.01 0.01 0.01 0.02
0.22 0.20 0.20 0.24 0.23 0.19 0.20 0.21 0.21 0.19 0.18 0.16 0.12 0.12 0.10 0.08 0.06 0.05 0.05 0.06 0.06 0.05 0.03 0.03 0.02 0.02 0.01 0.01 0.01 0.01 0.00 0.01 0.02 0.02 0.01 0.01 0.01 0.00 0.00 0.00 0.00 0.01 0.01
0.16 0.19 0.16 0.17 0.19 0.18 0.17 0.17 0.18 0.18 0.18 0.16 0.11 0.08 0.06 0.06 0.06 0.06 0.05 0.06 0.06 0.05 0.03 0.02 0.01 0.01 0.01 0.01 0.01 0.00 0.00 0.00 0.00 0.00 0.01 0.01 0.01 0.01 0.01 0.01 0.01 0.01 0.01
0.09 0.10 0.12 0.14 0.17 0.18 0.18 0.17 0.17 0.18 0.18 0.15 0.12 0.10 0.08 0.06 0.05 0.04 0.04 0.03 0.03 0.02 0.02 0.01 0.01 0.01 0.01 0.00 0.00 0.00 0.00 0.00 0.00 0.01 0.01 0.01 0.01 0.01 0.01 0.01 0.01 0.01 0.02
0.11 0.11 0.10 0.13 0.16 0.17 0.15 0.14 0.15 0.17 0.17 0.14 0.12 0.10 0.09 0.08 0.06 0.05 0.04 0.03 0.02 0.01 0.01 0.01 0.00 0.00 0.00 0.00 0.00 0.00 0.00 0.00 0.00 0.00 0.00 0.00 0.00 0.00 0.01 0.01 0.01 0.01 0.02
0.10 0.10 0.10 0.10 0.12 0.12 0.12 0.10 0.09 0.10 0.11 0.12 0.11 0.10 0.09 0.07 0.05 0.04 0.03 0.03 0.02 0.01 0.01 0.00 0.00 0.00 0.00 0.00 0.00 0.00 0.00 0.00 0.00 0.00 0.00 0.00 0.00 0.00 0.00 0.01 0.01 0.02 0.02
0.06 0.07 0.07 0.06 0.06 0.06 0.05 0.05 0.05 0.05 0.06 0.06 0.05 0.05 0.05 0.05 0.04 0.03 0.02 0.01 0.01 0.01 0.00 0.00 0.00 0.00 0.00 0.00 0.00 0.00 0.00 0.00 0.00 0.00 0.00 0.00 0.00 0.00 0.00 0.00 0.01 0.01 0.01
0.03 0.04 0.04 0.05 0.05 0.04 0.03 0.02 0.02 0.02 0.02 0.02 0.02 0.02 0.02 0.02 0.02 0.02 0.01 0.01 0.00 0.00 0.00 0.00 0.00 0.00 0.00 0.00 0.00 0.00 0.00 0.00 0.00 0.00 0.00 0.00 0.00 0.00 0.00 0.01 0.01 0.01 0.01
0.01 0.02 0.02 0.02 0.02 0.03 0.02 0.02 0.02 0.01 0.01 0.01 0.01 0.01 0.01 0.01 0.01 0.01 0.00 0.00 0.00 0.00 0.00 0.00 0.00 0.00 0.00 0.00 0.00 0.00 0.00 0.00 0.00 0.00 0.00 0.00 0.00 0.00 0.00 0.00 0.01 0.01 0.01
0.01 0.02 0.02 0.01 0.01 0.01 0.01 0.00 0.01 0.01 0.00 0.00 0.00 0.00 0.00 0.00 0.00 0.00 0.00 0.00 0.00 0.00 0.00 0.00 0.00 0.00 0.00 0.00 0.00 0.00 0.00 0.00 0.00 0.00 0.00 0.00 0.00 0.00 0.00 0.00 0.00 0.00 0.00
0.02 0.02 0.02 0.01 0.01 0.00 0.00 0.00 0.00 0.00 0.00 0.00 0.00 0.00 0.00 0.00 0.00 0.00 0.00 0.00 0.00 0.00 0.00 0.00 0.00 0.00 0.00 0.00 0.00 0.00 0.00 0.00 0.00 0.00 0.00 0.00 0.00 0.00 0.00 0.00 0.00 0.00 0.00
0.02 0.01 0.01 0.00 0.00 0.00 0.00 0.00 0.00 0.00 0.00 0.00 0.00 0.00 0.00 0.00 0.00 0.00 0.00 0.00 0.00 0.00 0.00 0.00 0.00 0.00 0.00 0.00 0.00 0.00 0.00 0.00 0.00 0.00 0.00 0.00 0.00 0.00 0.00 0.00 0.00 0.00 0.00
0.00 0.00 0.00 0.00 0.00 0.00 0.00 0.00 0.00 0.00 0.00 0.00 0.00 0.00 0.00 0.00 0.00 0.00 0.00 0.00 0.00 0.00 0.00 0.00 0.00 0.00 0.00 0.00 0.00 0.00 0.00 0.00 0.00 0.00 0.00 0.00 0.00 0.00 0.00 0.00 0.00 0.00 0.00
0.00 0.00 0.00 0.00 0.00 0.00 0.00 0.00 0.00 0.00 0.00 0.00 0.00 0.00 0.00 0.00 0.00 0.00 0.00 0.00 0.00 0.00 0.00 0.00 0.00 0.00 0.00 0.00 0.00 0.00 0.00 0.00 0.00 0.00 0.00 0.00 0.00 0.00 0.00 0.00 0.00 0.00 0.00
0.00 0.00 0.01 0.01 0.01 0.01 0.01 0.01 0.01 0.01 0.01 0.00 0.00 0.00 0.00 0.00 0.00 0.00 0.00 0.00 0.00 0.00 0.00 0.00 0.00 0.00 0.00 0.00 0.00 0.00 0.00 0.00 0.00 0.00 0.00 0.00 0.01 0.00 0.00 0.00 0.00 0.00 0.00
0.00 0.01 0.01 0.01 0.01 0.01 0.01 0.01 0.00 0.00 0.00 0.00 0.00 0.00 0.00 0.00 0.00 0.00 0.00 0.00 0.00 0.00 0.00 0.00 0.00 0.00 0.00 0.00 0.00 0.00 0.00 0.00 0.00 0.00 0.00 0.00 0.00 0.00 0.00 0.00 0.00 0.00 0.00
0.01 0.01 0.01 0.01 0.01 0.00 0.00 0.00 0.00 0.00 0.00 0.00 0.00 0.00 0.00 0.00 0.00 0.00 0.00 0.00 0.00 0.00 0.00 0.00 0.00 0.00 0.00 0.00 0.00 0.00 0.00 0.00 0.00 0.00 0.00 0.00 0.00 0.00 0.00 0.00 0.00 0.00 0.00
0.00 0.00 0.00 0.00 0.00 0.00 0.00 0.00 0.00 0.00 0.00 0.00 0.00 0.00 0.00 0.00 0.00 0.00 0.00 0.00 0.00 0.00 0.00 0.00 0.00 0.00 0.00 0.00 0.00 0.00 0.00 0.00 0.00 0.00 0.00 0.00 0.00 0.00 0.00 0.00 0.00 0.00 0.00
0.00 0.00 0.00 0.00 0.00 0.00 0.00 0.00 0.00 0.00 0.00 0.00 0.00 0.00 0.00 0.00 0.00 0.00 0.00 0.00 0.00 0.00 0.00 0.00 0.00 0.00 0.00 0.00 0.00 0.00 0.00 0.00 0.00 0.00 0.00 0.00 0.00 0.00 0.00 0.00 0.00 0.00 0.00
MSLP
1014.62 1014.76 1014.90 1015.06 1015.22 1015.40 1015.60 1015.80 1015.99 1016.16 1016.28 1016.38 1016.44 1016.49 1016.55 1016.64 1016.77 1016.97 1017.22 1017.51 1017.81 1018.12 1018.40 1018.66 1018.88 1019.06 1019.20 1019.32 1019.40 1019.47 1019.52 1019.57 1019.62 1019.69 1019.79 1019.91 1020.05 1020.20 1020.34 1020.45 1020.51 1020.52 1020.48
1014.49 1014.63 1014.80 1014.99 1015.20 1015.42 1015.65 1015.88 1016.10 1016.30 1016.47 1016.61 1016.73 1016.83 1016.93 1017.04 1017.17 1017.34 1017.53 1017.76 1018.00 1018.25 1018.50 1018.74 1018.95 1019.14 1019.29 1019.42 1019.51 1019.58 1019.63 1019.68 1019.74 1019.82 1019.94 1020.09 1020.26 1020.44 1020.60 1020.72 1020.79 1020.80 1020.76
1014.26 1014.41 1014.61 1014.84 1015.09 1015.36 1015.64 1015.91 1016.17 1016.43 1016.67 1016.89 1017.08 1017.26 1017.42 1017.56 1017.70 1017.84 1017.98 1018.13 1018.30 1018.48 1018.68 1018.89 1019.09 1019.28 1019.46 1019.60 1019.72 1019.81 1019.88 1019.95 1020.03 1020.13 1020.27 1020.44 1020.62 1020.81 1020.98 1021.11 1021.19 1021.20 1021.16
1013.97 1014.13 1014.36 1014.63 1014.92 1015.23 1015.54 1015.85 1016.16 1016.48 1016.80 1017.11 1017.40 1017.68 1017.92 1018.12 1018.29 1018.42 1018.52 1018.61 1018.71 1018.83 1018.97 1019.14 1019.33 1019.53 1019.73 1019.91 1020.06 1020.18 1020.28 1020.36 1020.46 1020.58 1020.72 1020.90 1021.09 1021.28 1021.44 1021.56 1021.64 1021.65 1021.61
1013.67 1013.85 1014.11 1014.40 1014.71 1015.04 1015.36 1015.69 1016.04 1016.40 1016.79 1017.20 1017.61 1017.99 1018.34 1018.63 1018.85 1019.00 1019.10 1019.16 1019.20 1019.27 1019.37 1019.51 1019.69 1019.90 1020.12 1020.32 1020.51 1020.66 1020.79 1020.90 1021.00 1021.12 1021.26 1021.43 1021.60 1021.77 1021.92 1022.02 1022.08 1022.09 1022.05
1013.44 1013.64 1013.90 1014.19 1014.50 1014.81 1015.12 1015.44 1015.79 1016.19 1016.64 1017.13 1017.64 1018.15 1018.62 1019.02 1019.33 1019.54 1019.66 1019.72 1019.76 1019.80 1019.88 1020.00 1020.17 1020.39 1020.62 1020.85 1021.05 1021.23 1021.37 1021.49 1021.59 1021.70 1021.83 1021.96 1022.10 1022.24 1022.36 1022.44 1022.47 1022.47 1022.43
1013.35 1013.55 1013.80 1014.07 1014.34 1014.60 1014.86 1015.14 1015.47 1015.87 1016.35 1016.91 1017.52 1018.14 1018.73 1019.25 1019.67 1019.97 1020.16 1020.27 1020.33 1020.38 1020.46 1020.58 1020.75 1020.97 1021.21 1021.44 1021.66 1021.84 1021.98 1022.09 1022.18 1022.27 1022.36 1022.46 1022.56 1022.66 1022.74 1022.78 1022.80 1022.77 1022.72
1013.44 1013.63 1013.85 1014.07 1014.28 1014.46 1014.64 1014.86 1015.13 1015.50 1015.99 1016.58 1017.26 1017.98 1018.69 1019.33 1019.87 1020.28 1020.56 1020.75 1020.87 1020.96 1021.06 1021.20 1021.38 1021.60 1021.83 1022.06 1022.26 1022.43 1022.55 1022.64 1022.71 1022.77 1022.83 1022.89 1022.96 1023.02 1023.06 1023.07 1023.05 1023.00 1022.94
1013.71 1013.88 1014.06 1014.22 1014.34 1014.44 1014.53 1014.65 1014.85 1015.18 1015.64 1016.24 1016.96 1017.74 1018.53 1019.27 1019.92 1020.44 1020.83 1021.11 1021.31 1021.47 1021.63 1021.80 1021.99 1022.21 1022.43 1022.64 1022.82 1022.96 1023.05 1023.11 1023.15 1023.19 1023.22 1023.26 1023.29 1023.32 1023.33 1023.32 1023.27 1023.20 1023.11
1014.13 1014.28 1014.41 1014.50 1014.55 1014.56 1014.56 1014.59 1014.72 1014.98 1015.39 1015.97 1016.68 1017.49 1018.32 1019.13 1019.85 1020.47 1020.96 1021.33 1021.62 1021.86 1022.08 1022.29 1022.51 1022.73 1022.95 1023.13 1023.28 1023.38 1023.45 1023.48 1023.49 1023.51 1023.53 1023.55 1023.58 1023.60 1023.59 1023.56 1023.49 1023.40 1023.27
1014.65 1014.77 1014.86 1014.89 1014.87 1014.81 1014.74 1014.70 1014.76 1014.95 1015.31 1015.84 1016.51 1017.29 1018.12 1018.94 1019.70 1020.37 1020.93 1021.39 1021.77 1022.09 1022.37 1022.64 1022.89 1023.12 1023.33 1023.49 1023.61 1023.68 1023.72 1023.72 1023.73 1023.73 1023.76 1023.79 1023.82 1023.85 1023.85 1023.81 1023.74 1023.62 1023.47
1015.22 1015.31 1015.36 1015.35 1015.28 1015.18 1015.07 1014.99 1015.00 1015.13 1015.43 1015.89 1016.49 1017.21 1017.98 1018.77 1019.51 1020.19 1020.79 1021.30 1021.75 1022.14 1022.49 1022.81 1023.10 1023.35 1023.55 1023.70 1023.80 1023.85 1023.86 1023.86 1023.86 1023.87 1023.91 1023.96 1024.03 1024.08 1024.10 1024.08 1024.00 1023.88 1023.71
1015.82 1015.87 1015.88 1015.85 1015.76 1015.64 1015.52 1015.43 1015.41 1015.51 1015.75 1016.13 1016.64 1017.26 1017.94 1018.64 1019.33 1019.98 1020.57 1021.11 1021.60 1022.04 1022.45 1022.82 1023.15 1023.42 1023.64 1023.78 1023.87 1023.90 1023.90 1023.89 1023.89 1023.92 1023.99 1024.08 1024.17 1024.26 1024.31 1024.31 1024.25 1024.13 1023.96
1016.42 1016.44 1016.42 1016.38 1016.30 1016.19 1016.08 1016.00 1015.99 1016.06 1016.25 1016.56 1016.97 1017.47 1018.03 1018.62 1019.21 1019.79 1020.35 1020.88 1021.38 1021.86 1022.31 1022.73 1023.10 1023.40 1023.63 1023.78 1023.85 1023.88 1023.87 1023.86 1023.87 1023.91 1024.00 1024.12 1024.25 1024.37 1024.46 1024.49 1024.46 1024.35 1024.18
1017.04 1017.02 1016.99 1016.95 1016.88 1016.80 1016.73 1016.68 1016.68 1016.75 1016.90 1017.14 1017.45 1017.83 1018.27 1018.73 1019.21 1019.69 1020.19 1020.69 1021.19 1021.68 1022.16 1022.62 1023.01 1023.34 1023.58 1023.74 1023.81 1023.83 1023.81 1023.79 1023.80 1023.84 1023.94 1024.08 1024.23 1024.38 1024.50 1024.57 1024.56 1024.48 1024.33
1017.71 1017.66 1017.61 1017.57 1017.52 1017.48 1017.45 1017.44 1017.47 1017.54 1017.66 1017.84 1018.07 1018.34 1018.65 1018.99 1019.36 1019.75 1020.17 1020.62 1021.10 1021.60 1022.09 1022.56 1022.98 1023.32 1023.58 1023.73 1023.80 1023.80 1023.77 1023.73 1023.72 1023.76 1023.84 1023.98 1024.13 1024.30 1024.43 1024.52 1024.54 1024.48 1024.37
1018.44 1018.36 1018.31 1018.26 1018.23 1018.22 1018.22 1018.25 1018.30 1018.38 1018.49 1018.63 1018.79 1018.98 1019.19 1019.43 1019.69 1020.00 1020.35 1020.75 1021.19 1021.67 1022.16 1022.63 1023.06 1023.40 1023.66 1023.81 1023.87 1023.85 1023.79 1023.72 1023.68 1023.68 1023.73 1023.83 1023.97 1024.12 1024.24 1024.34 1024.37 1024.35 1024.26
1019.22 1019.13 1019.06 1019.02 1019.00 1019.01 1019.04 1019.08 1019.15 1019.24 1019.34 1019.45 1019.57 1019.71 1019.85 1020.01 1020.20 1020.44 1020.73 1021.07 1021.48 1021.92 1022.39 1022.85 1023.26 1023.60 1023.84 1023.98 1024.02 1023.98 1023.89 1023.79 1023.69 1023.64 1023.64 1023.69 1023.77 1023.88 1023.98 1024.06 1024.10 1024.09 1024.03
1020.01 1019.92 1019.86 1019.83 1019.81 1019.82 1019.86 1019.91 1019.98 1020.07 1020.17 1020.27 1020.37 1020.48 1020.59 1020.71 1020.85 1021.04 1021.28 1021.58 1021.93 1022.33 1022.76 1023.19 1023.57 1023.89 1024.11 1024.23 1024.25 1024.19 1024.06 1023.91 1023.77 1023.66 1023.59 1023.57 1023.59 1023.63 1023.69 1023.73 1023.75 1023.74 1023.69
1020.78 1020.71 1020.67 1020.64 1020.62 1020.63 1020.65 1020.70 1020.76 1020.85 1020.94 1021.04 1021.15 1021.25 1021.35 1021.46 1021.58 1021.74 1021.94 1022.19 1022.49 1022.84 1023.22 1023.59 1023.94 1024.22 1024.41 1024.51 1024.51 1024.42 1024.28 1024.09 1023.90 1023.73 1023.59 1023.50 1023.44 1023.41 1023.40 1023.39 1023.37 1023.34 1023.30
1021.48 1021.45 1021.43 1021.41 1021.40 1021.39 1021.40 1021.42 1021.47 1021.54 1021.63 1021.74 1021.85 1021.97 1022.08 1022.20 1022.32 1022.46 1022.63 1022.83 1023.08 1023.37 1023.68 1023.99 1024.28 1024.52 1024.68 1024.76 1024.74 1024.64 1024.48 1024.27 1024.05 1023.83 1023.64 1023.48 1023.35 1023.25 1023.16 1023.09 1023.02 1022.95 1022.88
1022.08 1022.11 1022.12 1022.12 1022.11 1022.08 1022.06 1022.06 1022.08 1022.14 1022.23 1022.34 1022.47 1022.61 1022.75 1022.88 1023.00 1023.13 1023.27 1023.43 1023.61 1023.83 1024.06 1024.31 1024.53 1024.72 1024.85 1024.91 1024.89 1024.79 1024.63 1024.42 1024.18 1023.94 1023.71 1023.49 1023.30 1023.13 1022.98 1022.84 1022.71 1022.59 1022.49
1022.58 1022.67 1022.73 1022.75 1022.73 1022.70 1022.65 1022.62 1022.61 1022.65 1022.73 1022.85 1023.00 1023.16 1023.32 1023.47 1023.60 1023.71 1023.81 1023.92 1024.04 1024.18 1024.33 1024.49 1024.65 1024.79 1024.89 1024.93 1024.91 1024.82 1024.68 1024.48 1024.25 1024.01 1023.76 1023.51 1023.28 1023.06 1022.85 1022.65 1022.46 1022.29 1022.14
1023.00 1023.16 1023.26 1023.30 1023.28 1023.23 1023.16 1023.10 1023.07 1023.09 1023.16 1023.28 1023.44 1023.62 1023.80 1023.95 1024.08 1024.17 1024.24 1024.29 1024.34 1024.40 1024.47 1024.55 1024.64 1024.73 1024.79 1024.82 1024.80 1024.73 1024.61 1024.44 1024.23 1024.00 1023.76 1023.50 1023.25 1023.00 1022.75 1022.51 1022.27 1022.05 1021.86
1023.39 1023.59 1023.72 1023.78 1023.77 1023.71 1023.62 1023.54 1023.48 1023.48 1023.55 1023.67 1023.83 1024.01 1024.19 1024.35 1024.46 1024.53 1024.56 1024.56 1024.54 1024.52 1024.51 1024.51 1024.54 1024.57 1024.60 1024.61 1024.59 1024.53 1024.44 1024.29 1024.12 1023.91 1023.68 1023.44 1023.18 1022.92 1022.66 1022.39 1022.12 1021.87 1021.63
1023.77 1024.00 1024.16 1024.23 1024.22 1024.15 1024.05 1023.95 1023.88 1023.87 1023.92 1024.03 1024.19 1024.37 1024.54 1024.68 1024.78 1024.82 1024.80 1024.75 1024.67 1024.58 1024.50 1024.44 1024.40 1024.39 1024.38 1024.36 1024.34 1024.28 1024.20 1024.08 1023.92 1023.74 1023.54 1023.31 1023.07 1022.81 1022.55 1022.27 1021.99 1021.72 1021.46
Thickness
5729 5729 5728 5727 5726 5724 5723 5722 5721 5721 5721 5721 5721 5722 5721 5721 5721 5721 5721 5719 5718 5716 5716 5715 5714 5713 5712 5711 5710 5709 5707 5706 5705 5704 5702 5701 5699 5698 5697 5696 5695 5694 5694
5725 5724 5724 5723 5721 5720 5719 5718 5717 5717 5716 5717 5717 5717 5717 5717 5716 5716 5715 5713 5712 5711 5710 5710 5709 5709 5708 5707 5706 5704 5703 5702 5701 5700 5698 5697 5696 5695 5694 5693 5692 5691 5690
5721 5721 5719 5718 5717 5717 5716 5714 5712 5712 5711 5712 5711 5711 5710 5710 5710 5709 5709 5707 5706 5705 5704 5703 5703 5702 5701 5701 5700 5699 5697 5696 5695 5694 5693 5691 5690 5689 5688 5688 5687 5687 5687
5716 5715 5714 5714 5713 5713 5712 5710 5708 5706 5705 5705 5703 5703 5703 5702 5702 5702 5701 5700 5699 5698 5697 5696 5695 5694 5693 5693 5692 5691 5690 5689 5688 5686 5685 5684 5683 5682 5682 5681 5681 5681 5681
5710 5710 5710 5710 5708 5708 5708 5707 5704 5702 5699 5698 5696 5695 5695 5695 5695 5694 5693 5692 5691 5689 5688 5687 5687 5685 5684 5684 5683 5683 5682 5681 5679 5678 5677 5675 5674 5674 5674 5673 5673 5673 5673
5704 5705 5705 5705 5705 5704 5703 5702 5700 5698 5695 5694 5691 5686 5685 5685 5685 5685 5684 5683 5681 5680 5679 5678 5677 5676 5674 5674 5673 5673 5673 5672 5670 5669 5668 5666 5665 5664 5664 5664 5664 5664 5663
5700 5699 5700 5701 5701 5699 5697 5697 5695 5691 5688 5687 5683 5675 5672 5673 5674 5674 5674 5673 5672 5671 5670 5669 5668 5666 5664 5663 5663 5662 5662 5661 5660 5659 5658 5656 5655 5654 5653 5653 5653 5653 5653
5694 5694 5694 5693 5694 5693 5692 5690 5690 5686 5682 5682 5679 5671 5663 5660 5661 5662 5662 5663 5662 5661 5660 5658 5657 5655 5653 5652 5652 5651 5650 5650 5649 5648 5647 5645 5644 5643 5642 5641 5641 5641 5641
5685 5687 5688 5687 5687 5687 5685 5685 5685 5683 5678 5676 5677 5673 5663 5656 5651 5649 5651 5651 5651 5651 5649 5647 5646 5644 5643 5642 5640 5639 5638 5637 5637 5636 5635 5633 5632 5631 5630 5629 5629 5628 5628
5675 5678 5679 5679 5679 5679 5678 5678 5678 5678 5675 5670 5669 5669 5668 5663 5652 5642 5639 5639 5640 5639 5638 5637 5635 5633 5632 5631 5629 5628 5627 5625 5624 5623 5622 5621 5619 5618 5617 5616 5615 5614 5613
5666 5668 5670 5670 5669 5669 5670 5670 5670 5670 5668 5665 5662 5660 5658 5655 5652 5645 5634 5630 5629 5628 5627 5626 5624 5622 5621 5619 5618 5617 5615 5614 5612 5611 5610 5608 5606 5605 5604 5603 5601 5600 5599
5655 5656 5658 5659 5659 5659 5659 5660 5660 5660 5658 5656 5654 5652 5650 5648 5643 5640 5632 5625 5620 5617 5616 5614 5613 5611 5610 5608 5607 5606 5604 5603 5601 5599 5597 5596 5594 5592 5590 5588 5587 5585 5584
5642 5643 5646 5647 5647 5647 5647 5648 5648 5646 5645 5644 5643 5641 5640 5639 5637 5634 5627 5618 5612 5607 5604 5602 5602 5601 5599 5598 5596 5595 5593 5591 5589 5587 5585 5583 5580 5578 5576 5574 5572 5570 5568
5630 5631 5633 5634 5634 5635 5635 5635 5634 5633 5632 5631 5630 5629 5628 5627 5627 5624 5619 5612 5604 5596 5594 5592 5591 5590 5589 5588 5586 5584 5582 5580 5577 5575 5573 5570 5567 5565 5562 5559 5557 5554 5552
5618 5619 5620 5621 5621 5622 5622 5622 5621 5619 5618 5618 5617 5616 5615 5614 5614 5612 5610 5607 5600 5590 5583 5581 5581 5581 5580 5578 5576 5574 5572 5569 5566 5564 5561 5558 5555 5552 5548 5545 5542 5540 5537
5607 5607 5608 5609 5609 5609 5609 5609 5607 5607 5606 5605 5604 5604 5602 5601 5601 5599 5597 5595 5592 5585 5575 5572 5572 5571 5570 5568 5566 5563 5561 5559 5556 5553 5550 5547 5544 5540 5536 5533 5530 5527 5524
5594 5595 5595 5595 5596 5595 5595 5595 5594 5594 5593 5591 5591 5590 5589 5588 5587 5585 5584 5582 5579 5575 5567 5562 5561 5561 5559 5557 5555 5553 5551 5549 5546 5543 5540 5537 5533 5529 5525 5522 5519 5516 5513
5581 5582 5582 5582 5582 5582 5583 5582 5582 5581 5579 5578 5577 5577 5575 5575 5573 5571 5570 5567 5564 5562 5557 5552 5550 5548 5547 5546 5544 5542 5540 5538 5536 5534 5531 5527 5523 5520 5516 5512 5509 5506 5503
5569 5569 5569 5568 5569 5569 5569 5570 5569 5568 5567 5565 5565 5563 5562 5561 5558 5557 5555 5553 5551 5549 5545 5541 5537 5535 5534 5534 5532 5531 5530 5528 5527 5524 5522 5518 5515 5512 5508 5505 5501 5498 5495
5557 5557 5556 5556 5556 5557 5557 5557 5557 5556 5555 5553 5552 5551 5550 5548 5546 5544 5543 5540 5538 5536 5532 5528 5525 5523 5522 5522 5520 5518 5517 5516 5516 5515 5513 5511 5508 5505 5502 5498 5495 5492 5488
5545 5545 5544 5544 5544 5544 5544 5544 5545 5544 5542 5541 5540 5539 5538 5537 5536 5534 5532 5529 5527 5523 5520 5517 5514 5512 5510 5510 5508 5507 5505 5505 5506 5506 5504 5503 5501 5498 5496 5493 5490 5487 5483
5533 5533 5532 5532 5532 5532 5533 5534 5534 5532 5531 5530 5528 5527 5526 5525 5525 5525 5523 5522 5519 5515 5511 5508 5504 5503 5502 5501 5500 5499 5496 5495 5494 5497 5495 5494 5494 5492 5491 5488 5486 5483 5480
5522 5522 5521 5521 5520 5521 5523 5524 5524 5522 5521 5519 5518 5517 5517 5515 5515 5514 5514 5513 5511 5509 5506 5502 5498 5497 5496 5495 5494 5492 5490 5488 5488 5490 5488 5488 5488 5486 5487 5486 5483 5481 5477
5514 5513 5512 5511 5511 5512 5513 5514 5514 5513 5511 5509 5508 5507 5505 5504 5505 5504 5504 5502 5501 5499 5498 5496 5494 5493 5493 5492 5490 5488 5486 5485 5485 5486 5485 5482 5482 5482 5484 5483 5481 5478 5476
5506 5505 5504 5503 5503 5503 5504 5505 5505 5503 5501 5499 5499 5498 5497 5495 5495 5495 5494 5491 5491 5491 5492 5491 5491 5490 5490 5489 5487 5484 5482 5479 5478 5480 5481 5478 5477 5477 5478 5479 5479 5477 5474
5499 5498 5497 5496 5495 5495 5496 5497 5497 5495 5492 5490 5489 5489 5488 5488 5487 5487 5485 5483 5482 5482 5483 5485 5486 5487 5487 5486 5485 5482 5479 5475 5473 5473 5477 5475 5474 5472 5471 5475 5476 5476 5473